{"data":{"norad_id":2826,"intl_designator":"1967-053A","name":"OPS 5712 (P/L 160)","alt_names":[],"object_type":"PAYLOAD","status":"ACTIVE","operator":null,"country":"US","launch_date":"1967-05-31","launch_site_code":"AFWTR","launch_vehicle":null,"mission":null,"orbit_class":"UNKNOWN","rcs_meters":0.403,"size_class":null,"mass_kg":null,"dimensions":null,"purposes":["military"],"wikipedia_slug":null,"has_3d_model":false,"image_url":null,"decayed_at":null,"tle_current":{"epoch":"2026-05-25T03:59:40.274304Z","epoch_age_seconds":60739,"freshness":"FRESH","line1":"1 02826U 67053A   26145.16643836  .00007781  00000+0  11033-2 0  9996","line2":"2 02826  69.9161  94.7050 0001322 260.9668  99.1330 14.77333095 62838","mean_motion":14.77333095,"eccentricity":0.0001322,"inclination_deg":69.9161,"raan_deg":94.705,"arg_perigee_deg":260.9668,"mean_anomaly_deg":99.133,"bstar":0.0011033,"rev_number":6283,"period_min":97.472939912715,"perigee_km":636.82741811504,"apogee_km":638.68241993843,"semimajor_km":7015.8919190267,"source":"CELESTRAK","updated_at":"2026-05-25T13:38:25.285668Z"}}}